Overview Statistics Trail Chart Weather Telemetry Raw packets
 

This is the latest recevied weather packets stored in our database for station/object K2CAT. If no packets are shown the sender has not sent any weather packets the latest 10 day(s).

<< 70 71 72 73 74 75 76 >>
Time Temp. Humidity Pressure Rain* Wind** Luminosity Snow
1777214320 11.11° C 82% 1020.7 hPa 0 mm - 388 W/m² -
1777214018 11.11° C 84% 1020.5 hPa 0 mm - 277 W/m² -
1777213713 10.56° C 86% 1020.3 hPa 0 mm - 426 W/m² -
1777213410 10.56° C 87% 1020.4 hPa 0 mm - 139 W/m² -
1777213107 10° C 89% 1020.3 hPa 0 mm - 310 W/m² -
1777212804 10° C 89% 1020.4 hPa 0 mm - 328 W/m² -
1777212500 10° C 90% 1020.3 hPa 0 mm - 247 W/m² -
1777212195 10° C 91% 1020.4 hPa 0 mm - 214 W/m² -
1777211890 10° C 89% 1020.3 hPa 0 mm - 215 W/m² -
1777211588 9.44° C 90% 1020.5 hPa 0 mm - 222 W/m² -
1777211285 8.89° C 91% 1020.4 hPa 0 mm - 231 W/m² -
1777210981 8.89° C 93% 1020.5 hPa 0 mm - 215 W/m² -
1777210676 8.89° C 94% 1020.5 hPa 0 mm - 196 W/m² -
1777210371 8.33° C 95% 1020.5 hPa 0 mm - 197 W/m² -
1777210068 8.33° C 96% 1020.4 hPa 0 mm - 187 W/m² -
1777209765 7.78° C 97% 1020.7 hPa 0 mm - 157 W/m² -
1777209460 7.78° C 97% 1020.5 hPa 0 mm - 187 W/m² -
1777209156 7.78° C 98% 1020.7 hPa 0 mm - 131 W/m² -
1777208852 7.78° C 98% 1020.8 hPa 0 mm - 121 W/m² -
1777208550 7.78° C 98% 1020.6 hPa 0 mm - 109 W/m² -
1777208246 7.78° C 98% 1020.7 hPa 0 mm - 112 W/m² -
1777207941 7.78° C 98% 1020.5 hPa 0 mm - 106 W/m² -
1777207636 7.78° C 98% 1020.6 hPa 0 mm - 91 W/m² -
1777207332 7.22° C 99% 1020.5 hPa 0 mm - 100 W/m² -
1777207031 7.22° C 99% 1020.4 hPa 0 mm - 105 W/m² -

* Rain latest hour (hover to see other rain measurements)
** Current wind speed in m/s (hover to see current wind gust speed)